Weather Roundup
Issued by NWS

Home | Current Version | Previous Version | Graphics & Text | Print | Product List | Glossary Off
Versions: 1 2 3 4 5 6 7 8 9 10 11 12 13 14 15 16 17 18 19 20 21 22 23 24 25 26 27 28 29 30 31 32 33 34 35 36 37 38 39 40 41 42 43 44 45 46 47 48 49 50

790
NZUS93 KARX 232359
HRRWXR

CURRENT HOURLY OBSERVATIONS ACROSS
MUCH OF THE UPPER MISSISSIPPI VALLEY
NATIONAL WEATHER SERVICE LA CROSSE WI
600 PM CST THU NOV 23 2017


...SOUTHEAST MINNESOTA...


CITY           SKY/WX    TMP DP  RH WIND       PRES   REMARKS
ROCHESTER      CLEAR     36  26  67 S9        29.82F WCI  29
ROCHESTER/MAYO FAIR      41  26  55 S6        29.82F
WINONA         CLEAR     36  27  69 S3        29.85F
AUSTIN         NOT AVBL
ALBERT LEA     CLEAR     43  27  52 S7        29.80F
DODGE CENTER   CLEAR     34  25  69 S8        29.81S WCI  27
PRESTON        CLEAR     37  25  62 S6        29.84F WCI  32
OWATONNA       CLEAR     39  28  65 S8        29.79F WCI  34
FARIBAULT      CLEAR     39  28  65 S6        29.79S WCI  35
$$

...ELSEWHERE IN MINNESOTA...


CITY           SKY/WX    TMP DP  RH WIND       PRES   REMARKS
MINNEAPOLIS    CLOUDY    43  27  53 S9        29.76F
INTNL FALLS    CLOUDY    28  21  75 SE5       29.57F WCI  23
DULUTH         CLOUDY    35  25  66 S13       29.67F WCI  26
RED WING       CLEAR     36  21  55 SE5       29.79F WCI  32
REDWOOD FALLS  CLEAR     41  28  60 S13       29.71F
MANKATO        CLEAR     42  29  59 S12       29.77F
WORTHINGTON    CLOUDY    49  34  56 S14       29.76F
FAIRMONT       CLEAR     41  30  65 S12       29.78F
$$

...SOUTHWEST WISCONSIN...


CITY           SKY/WX    TMP DP  RH WIND       PRES   REMARKS
LA CROSSE      CLEAR     36  23  59 SE5       29.86R WCI  32
PRAIRIE DU CHI CLEAR     37  23  57 SE3       29.88R
BOSCOBEL       CLEAR     33  24  69 CALM      29.89R
LONE ROCK      NOT AVBL
PLATTEVILLE    CLEAR     38  26  60 S5        29.88F WCI  35
FORT MC COY    CLEAR     30  22  72 CALM      29.87R
CAMP DOUGLAS   CLEAR     28  20  71 S3        29.84F
MAUSTON-NEW LI CLEAR     32  23  70 CALM      29.85S
VIROQUA        FAIR      36  25  65 S5        29.85S WCI  32
WIS DELLS      CLEAR     33  22  63 S3        29.87S
$$

...ELSEWHERE IN WISCONSIN...


CITY           SKY/WX    TMP DP  RH WIND       PRES   REMARKS
MILWAUKEE      CLEAR     39  24  55 SW5       29.91S
MADISON        CLEAR     33  23  66 CALM      29.88S
GREEN BAY      CLOUDY    35  25  66 S6        29.86S WCI  30
EAU CLAIRE     NOT AVBL
BLACK RVR FLS  FAIR      28  18  68 CALM      29.85R
MEDFORD        PTCLDY    32  22  66 S5        29.81R WCI  27
WAUSAU         CLOUDY    33  22  63 W5        29.82R WCI  29
WIS RAPIDS     CLEAR     34  21  59 SW5       29.84F WCI  30
MARSHFIELD     CLEAR     33  20  58 SW6       29.82R WCI  28
RICE LAKE      CLOUDY    37  24  61 SE7       29.79F WCI  31
$$

...NORTHEAST IOWA...


CITY           SKY/WX    TMP DP  RH WIND       PRES   REMARKS
WATERLOO       CLEAR     35  25  66 S3        29.88S
DUBUQUE        CLEAR     33  25  72 SW5       29.89F WCI  29
DECORAH        CLEAR     39  25  56 S5        29.85S
MASON CITY     CLEAR     36  26  67 S6        29.85F WCI  31
CHARLES CITY   CLEAR     37  25  60 S8        29.86S WCI  31
OELWEIN        CLEAR     36  27  69 S8        29.88S WCI  29
$$

...ELSEWHERE IN IOWA...


CITY           SKY/WX    TMP DP  RH WIND       PRES   REMARKS
DES MOINES     PTCLDY    46  31  55 SE7       29.89F
IOWA CITY      CLEAR     40  28  62 CALM      29.93R
FORT DODGE     CLEAR     48  32  53 S6        29.83F
MARSHALLTOWN   CLEAR     44  30  57 S7        29.87F
CEDAR RAPIDS   CLEAR     40  28  62 CALM      29.90S
$$

...NORTHERN ILLINOIS...


CITY           SKY/WX    TMP DP  RH WIND       PRES   REMARKS
CHICAGO-OHARE  CLEAR     40  25  55 SW3       29.94R
CHICAGO-MIDWAY NOT AVBL
MOLINE         CLEAR     33  25  72 CALM      29.92F
ROCKFORD       PTCLDY    39  25  57 S5        29.93F
PEORIA         CLEAR     40  26  57 CALM      29.96R
$$

NOTE: "FAIR" INDICATES FEW OR NO CLOUDS BELOW 12,000 FEET WITH NO
SIGNIFICANT WEATHER AND/OR OBSTRUCTIONS TO VISIBILITY. WIND
SPEEDS ARE IN MILES-PER-HOUR.




USA.gov is the U.S. government's official web portal to all federal, state and local government web resources and services.